Flag for U.S.A. Weather past 2 weeks in Huntington Beach, California, U.S.A.

Now
81 °F

Scattered clouds.


Feels Like: 82 °F
Forecast: 64 / 78 °F
Wind: 8 mph from West

Location: John Wayne Airport-Orange County Airport

Current Time: Aug 21, 2014 at 3:48:45 PM

Latest Report: Aug 21, 2014 at 2:53 PM


Visibility: 10 mi

Pressure: 29.90 "Hg

Humidity: 51%

Dew point: 61 °F

Location of Huntington BeachLocation

Historic Weather in Huntington Beach — Graph

°F

Huntington Beach temperature yesterday

Maximum temperature yesterday: 80 °F (at 11:53 AM)
Minimum temperature yesterday: 70 °F (at 4:53 AM)
Average temperature yesterday: 74 °F

Past Weeks' High & Low Weather Summary

 TemperatureHumidityPressure
High89 °F (Aug 15, 2:53 PM)82% (Aug 15, 5:53 AM)30.00 "Hg (Aug 15, 5:53 AM)
Low68 °F (Aug 7, 12:53 AM)29% (Aug 15, 3:53 PM)29.79 "Hg (Aug 18, 4:53 PM)
Average75 °F64%29.93 "Hg
* Reported Aug 6 2:53 PM — Aug 21 2:53 PM, Huntington Beach, Weather by CustomWeather, © 2014

Note: Actual official high and low records may vary slightly from our data, if they occured in-between our weather recording intervals... More about our weather records

Advertising

Huntington Beach weather history for previous 24 hours

 ConditionsComfort  
Time TempWeatherWind HumidityBarometerVisibility
2:53 PM
Aug 21
81 °FScattered clouds.8 mph51%29.90 "Hg10 mi
1:53 PM81 °FScattered clouds.7 mph51%29.92 "Hg10 mi
12:53 PM79 °FScattered clouds.7 mph54%29.93 "Hg10 mi
11:53 AM78 °FScattered clouds.10 mph56%29.95 "Hg10 mi
10:53 AM79 °FScattered clouds.9 mph56%29.95 "Hg10 mi
9:53 AM76 °FPassing clouds.3 mph58%29.95 "Hg10 mi
8:53 AM73 °FPassing clouds.No wind66%29.95 "Hg10 mi
7:53 AM71 °FPartly sunny.No wind71%29.94 "Hg10 mi
6:53 AM71 °FPassing clouds.No wind73%29.93 "Hg10 mi
5:53 AM71 °FPassing clouds.No wind71%29.91 "Hg10 mi
4:53 AM70 °FOvercast.No wind76%29.91 "Hg10 mi
3:53 AM70 °FClear.No wind76%29.92 "Hg10 mi
2:53 AM71 °FPassing clouds.No wind71%29.93 "Hg10 mi
1:53 AM71 °FClear.No wind71%29.91 "Hg10 mi
12:53 AM71 °FClear.No wind71%29.92 "Hg10 mi
11:53 PM
Aug 20
72 °FClear.No wind68%29.92 "Hg10 mi
10:53 PM72 °FClear.5 mph71%29.92 "Hg10 mi
9:53 PM73 °FPassing clouds.3 mph69%29.91 "Hg10 mi
8:53 PM73 °FPassing clouds.5 mph69%29.90 "Hg10 mi
7:53 PM73 °FScattered clouds.5 mph66%29.89 "Hg10 mi
6:53 PM74 °FScattered clouds.6 mph64%29.88 "Hg10 mi
5:53 PM78 °FScattered clouds.8 mph54%29.88 "Hg10 mi
4:53 PM79 °FScattered clouds.9 mph50%29.88 "Hg10 mi
3:53 PM80 °FScattered clouds.8 mph49%29.88 "Hg10 mi
Weather by CustomWeather, © 2014

See weather overviewHow to use our weather pages